Tracking 28790 objects as of 19-Apr-2024
HD Live streaming from Space Station
objects crossing your sky now

COSMOS 2251 DEB

Track COSMOS 2251 DEB now!
10-day predictions


NORAD ID: 34446
Int'l Code: 1993-036SP
Perigee: 702.9 km
Apogee: 775.7 km
Inclination: 74.0 °
Period: 99.4 minutes
Semi major axis: 7110 km
RCS: 0.0123 m2 (small)
Launch date: June 16, 1993
Source: Commonwealth of Independent States (former USSR) (CIS)
Launch site: PLESETSK MISSILE AND SPACE COMPLEX (PKMTR)

Note: This is SATELLITE DEBRIS
Your satellite tracking list
Your tracking list is empty




NASA's NSSDC Master Catalog

Two Line Element Set (TLE):
1 34446U 93036SP  24109.65962733  .00001652  00000-0  44472-3 0  9997
2 34446  74.0395 107.1778 0051216  33.2806 327.1555 14.48015706799604
Source of the keplerian elements: AFSPC